Telluride, CO

3:58 PM MDT on June 22, 2018 (GMT -0600)
Telluride Regional

Weather History for KTEX - October, 2017

Change the Weather History Date:

Thursday, October 26, 2017

  Actual Average Record
Temperature  
Mean Temperature 44 °F -  
Max Temperature 54 °F 44 °F 61 °F (2016)
Min Temperature 34 °F 28 °F 14 °F (2012)
Degree Days  
Heating Degree Days 21    
Moisture  
Dew Point 16 °F    
Average Humidity 36    
Maximum Humidity 52    
Minimum Humidity 15    
Precipitation  
Precipitation 0.00 in - - ()
Sea Level Pressure  
Sea Level Pressure 30.21 in    
Wind  
Wind Speed 7 mph (ESE)    
Max Wind Speed 22 mph    
Max Gust Speed 31 mph    
Visibility 10 miles    
Events      
Averages and records for this station are not official NWS values.
T = Trace of Precipitation, MM = Missing Value Source: NWS Daily Summary

Daily Weather History Graph

Daily Weather History Graph

Search for Another Location

Airport or City:

Astronomy

Oct. 26, 2017 Rise Set
Actual Time 7:31 AM MDT 6:19 PM MDT
Civil Twilight 7:04 AM MDT 6:46 PM MDT
Nautical Twilight 6:33 AM MDT 7:16 PM MDT
Astronomical Twilight 6:03 AM MDT 7:47 PM MDT
Moon 1:24 PM MDT (10/26) 11:38 PM MDT (10/26)
Length of Visible Light 11h 41m
Length of Day
10h 47m
Waxing Crescent, 39% of the Moon is Illuminated
Oct 26
Waxing Crescent
Oct 27
First Quarter
Nov 3
Full
Nov 10
Last Quarter
Nov 18
New

Hourly Weather History & Observations

Time (MDT) Temp. Windchill Dew Point Humidity Pressure Visibility Wind Dir Wind Speed Gust Speed Precip Events Conditions
12:15 AM 39.2 °F 35.0 °F 20.1 °F 46% 30.28 in 10.0 mi ESE 5.8 mph - N/A   Clear
12:35 AM 38.3 °F 32.5 °F 19.9 °F 48% 30.28 in 10.0 mi SE 8.1 mph - N/A   Clear
12:55 AM 37.4 °F 32.1 °F 20.3 °F 50% 30.27 in 10.0 mi SE 6.9 mph - N/A   Clear
1:15 AM 38.3 °F 33.2 °F 19.6 °F 47% 30.27 in 10.0 mi SE 6.9 mph - N/A   Clear
1:35 AM 36.5 °F 32.7 °F 19.6 °F 50% 30.26 in 10.0 mi SE 4.6 mph - N/A   Clear
1:55 AM 37.9 °F 35.5 °F 18.7 °F 46% 30.26 in 10.0 mi SSE 3.5 mph - N/A   Clear
2:15 AM 36.7 °F 32.9 °F 19.0 °F 49% 30.26 in 10.0 mi ESE 4.6 mph - N/A   Clear
2:35 AM 36.5 °F 31.8 °F 18.5 °F 48% 30.25 in 10.0 mi SE 5.8 mph - N/A   Clear
2:55 AM 36.7 °F 34.1 °F 18.3 °F 47% 30.25 in 10.0 mi ESE 3.5 mph - N/A   Clear
3:15 AM 35.6 °F 29.9 °F 18.0 °F 49% 30.25 in 10.0 mi SE 6.9 mph - N/A   Clear
3:55 AM 35.4 °F 29.7 °F 18.1 °F 49% 30.24 in 10.0 mi SE 6.9 mph - N/A   Clear
4:15 AM 35.6 °F 28.6 °F 17.1 °F 47% 30.22 in 10.0 mi SSE 9.2 mph - N/A   Clear
4:35 AM 34.0 °F 28.0 °F 17.4 °F 51% 30.22 in 10.0 mi SE 6.9 mph - N/A   Clear
4:55 AM 35.8 °F 30.9 °F 16.2 °F 45% 30.23 in 10.0 mi SE 5.8 mph - N/A   Clear
5:15 AM 35.6 °F 29.2 °F 16.5 °F 46% 30.23 in 10.0 mi SE 8.1 mph - N/A   Clear
5:35 AM 35.2 °F 29.5 °F 16.3 °F 46% 30.23 in 10.0 mi SE 6.9 mph - N/A   Clear
5:55 AM 35.2 °F 29.5 °F 16.3 °F 46% 30.23 in 10.0 mi SE 6.9 mph - N/A   Clear
6:15 AM 35.6 °F 30.7 °F 16.0 °F 45% 30.23 in 10.0 mi SE 5.8 mph - N/A   Clear
6:35 AM 35.2 °F 29.5 °F 15.6 °F 45% 30.23 in 10.0 mi SE 6.9 mph - N/A   Clear
7:15 AM 35.8 °F 30.9 °F 14.9 °F 43% 30.23 in 10.0 mi SSE 5.8 mph - N/A   Clear
8:15 AM 36.0 °F 33.3 °F 15.6 °F 44% 30.21 in 10.0 mi ESE 3.5 mph - N/A   Clear
8:35 AM 36.9 °F 32.2 °F 14.7 °F 40% 30.21 in 10.0 mi SE 5.8 mph - N/A   Clear
8:55 AM 39.9 °F - 14.7 °F 36% 30.21 in 10.0 mi Calm Calm - N/A   Clear
9:15 AM 41.5 °F - 14.0 °F 33% 30.21 in 10.0 mi Calm Calm - N/A   Clear
9:35 AM 43.7 °F - 14.4 °F 31% 30.22 in 10.0 mi Calm Calm - N/A   Clear
9:55 AM 46.0 °F 43.9 °F 14.2 °F 28% 30.21 in 10.0 mi SE 4.6 mph - N/A   Clear
10:15 AM 48.6 °F - 13.5 °F 25% 30.21 in 10.0 mi Calm Calm - N/A   Clear
10:35 AM 50.0 °F - 11.3 °F 21% 30.20 in 10.0 mi Calm Calm - N/A   Clear
10:55 AM 51.1 °F - 10.4 °F 20% 30.19 in 10.0 mi West 4.6 mph - N/A   Clear
11:15 AM 53.1 °F - 11.3 °F 19% 30.18 in 10.0 mi West 8.1 mph - N/A   Scattered Clouds
11:35 AM 52.2 °F - 8.6 °F 17% 30.18 in 10.0 mi West 13.8 mph - N/A   Scattered Clouds
11:55 AM 52.9 °F - 7.5 °F 16% 30.18 in 10.0 mi West 9.2 mph 19.6 mph N/A   Scattered Clouds
12:15 PM 53.6 °F - 7.0 °F 15% 30.18 in 10.0 mi West 12.7 mph 21.9 mph N/A   Scattered Clouds
12:35 PM 54.0 °F - 9.1 °F 17% 30.16 in 10.0 mi West 13.8 mph 18.4 mph N/A   Clear
12:55 PM 53.8 °F - 7.3 °F 15% 30.16 in 10.0 mi West 18.4 mph 25.3 mph N/A   Clear
1:15 PM 53.8 °F - 6.8 °F 15% 30.16 in 10.0 mi West 20.7 mph 26.5 mph N/A   Clear
1:35 PM 53.1 °F - 6.3 °F 15% 30.15 in 10.0 mi West 18.4 mph 26.5 mph N/A   Clear
1:55 PM 52.7 °F - 8.2 °F 17% 30.16 in 10.0 mi West 19.6 mph 25.3 mph N/A   Clear
2:15 PM 52.7 °F - 10.6 °F 19% 30.14 in 10.0 mi West 15.0 mph 21.9 mph N/A   Clear
2:35 PM 51.4 °F - 10.6 °F 19% 30.14 in 10.0 mi West 17.3 mph - N/A   Scattered Clouds
2:55 PM 51.8 °F - 10.9 °F 19% 30.14 in 10.0 mi West 21.9 mph 28.8 mph N/A   Scattered Clouds
3:15 PM 52.0 °F - 11.3 °F 20% 30.14 in 10.0 mi West 20.7 mph 24.2 mph N/A   Clear
3:35 PM 52.2 °F - 13.8 °F 22% 30.14 in 10.0 mi West 21.9 mph 25.3 mph N/A   Clear
3:55 PM 51.8 °F - 15.4 °F 24% 30.14 in 10.0 mi West 21.9 mph 31.1 mph N/A   Scattered Clouds
4:15 PM 50.4 °F - 14.4 °F 24% 30.15 in 10.0 mi West 20.7 mph 26.5 mph N/A   Overcast
4:35 PM 50.0 °F - 15.4 °F 25% 30.15 in 10.0 mi West 18.4 mph 27.6 mph N/A   Overcast
4:55 PM 48.2 °F - 17.1 °F 29% 30.17 in 10.0 mi North 3.5 mph - N/A   Overcast
5:15 PM 47.5 °F - 17.2 °F 30% 30.18 in 10.0 mi NNE 5.8 mph - N/A   Overcast
5:35 PM 47.7 °F - 16.7 °F 29% 30.18 in 10.0 mi North 3.5 mph - N/A   Overcast
5:55 PM 47.1 °F - 16.5 °F 29% 30.18 in 10.0 mi NNE 5.8 mph - N/A   Overcast
6:15 PM 46.4 °F 44.3 °F 17.1 °F 31% 30.19 in 10.0 mi NNE 4.6 mph - N/A   Overcast
6:35 PM 45.5 °F 41.8 °F 19.2 °F 35% 30.19 in 10.0 mi North 6.9 mph - N/A   Overcast
6:55 PM 44.2 °F 39.2 °F 20.8 °F 39% 30.21 in 10.0 mi North 9.2 mph 21.9 mph N/A   Scattered Clouds
7:15 PM 43.7 °F 39.1 °F 21.2 °F 41% 30.21 in 10.0 mi North 8.1 mph 18.4 mph N/A   Scattered Clouds
7:35 PM 43.2 °F 37.9 °F 21.2 °F 42% 30.21 in 10.0 mi NNE 9.2 mph - N/A   Scattered Clouds
7:55 PM 42.3 °F 38.6 °F 20.7 °F 42% 30.23 in 10.0 mi NNE 5.8 mph 17.3 mph N/A   Scattered Clouds
8:15 PM 41.9 °F 38.2 °F 20.7 °F 43% 30.23 in 10.0 mi North 5.8 mph - N/A   Clear
8:35 PM 40.8 °F 38.8 °F 20.8 °F 45% 30.23 in 10.0 mi North 3.5 mph - N/A   Clear
8:55 PM 40.8 °F 38.8 °F 21.0 °F 45% 30.24 in 10.0 mi NNE 3.5 mph - N/A   Clear
9:15 PM 40.3 °F - 21.6 °F 47% 30.23 in 10.0 mi Calm Calm - N/A   Clear
9:35 PM 40.1 °F 36.1 °F 21.2 °F 47% 30.24 in 10.0 mi NNE 5.8 mph - N/A   Clear
9:55 PM 38.7 °F 36.3 °F 21.0 °F 49% 30.25 in 10.0 mi NE 3.5 mph - N/A   Clear
10:15 PM 39.2 °F - 20.3 °F 47% 30.26 in 10.0 mi Calm Calm - N/A   Clear
10:35 PM 38.5 °F - 19.6 °F 47% 30.26 in 10.0 mi Calm Calm - N/A   Clear
10:55 PM 38.7 °F - 19.4 °F 46% 30.28 in 10.0 mi Calm Calm - N/A   Clear
11:15 PM 38.3 °F - 18.9 °F 46% 30.28 in 10.0 mi Calm Calm - N/A   Clear
11:35 PM 36.1 °F 31.4 °F 19.4 °F 51% 30.27 in 10.0 mi West 5.8 mph - N/A   Clear
11:55 PM 35.8 °F - 19.6 °F 52% 30.28 in 10.0 mi Calm Calm - N/A   Clear